{"data":{"norad_id":53787,"intl_designator":"2022-111Q","name":"STARLINK-4743","alt_names":[],"object_type":"PAYLOAD","status":"ACTIVE","operator":null,"country":"US","launch_date":"2022-09-11","launch_site_code":"AFETR","launch_vehicle":null,"mission":null,"orbit_class":"UNKNOWN","rcs_meters":null,"size_class":null,"mass_kg":null,"dimensions":null,"purposes":["comms"],"wikipedia_slug":null,"has_3d_model":false,"image_url":null,"decayed_at":null,"tle_current":{"epoch":"2026-09-20T06:52:44.293728Z","epoch_age_seconds":102963,"freshness":"FRESH","line1":"1 53787U 22111Q   26263.28662377  .00000374  00000+0  23821-4 0  9990","line2":"2 53787  53.1592 107.2686 0001321  89.5169 270.5984 15.31696275223256","mean_motion":15.31696275,"eccentricity":0.0001321,"inclination_deg":53.1592,"raan_deg":107.2686,"arg_perigee_deg":89.5169,"mean_anomaly_deg":270.5984,"bstar":2.3821e-5,"rev_number":22325,"period_min":94.013416595924,"perigee_km":469.8463611614,"apogee_km":471.65583739723,"semimajor_km":6848.8880992793,"source":"CELESTRAK","updated_at":"2026-09-21T09:00:32.993523Z"}}}